x

South Brooks (46132) Wave Buoy

11:00 - Mon 30th May 2016 All times are PDT. -7 hours from GMT.

  • Sig Wave height 2.6ft
  • Peak Period 11s
  • Wind
    4mph
  • Sea Temp 54°f
  • Air Temp 55°f
  • Sea Pressure 1024mb
  • South Brooks
  • South Brooks

More Historic Weather Station data

Upgrade to MSW Pro to gain access to the past 30 days of data for over 8000 Wavebouys and Weather Stations around the globe.

Join Pro

Comparision Forecast

View Surf forecast
   
lun. 05/30 11:00 2.5ft 11s 4
mph
1024mb 54f 55f
10:00 2.5ft 12s 9
mph
1024.6mb 54f 55f
9:00 2.5ft 17s 4 7 mph 1024mb 55f 55f
8:00 3ft 12s 4 7 mph 1024.5mb 55f 55f
7:00 3ft 12s 4 7 mph 1025.1mb 55f 56f
6:00 3ft 12s 4
mph
1025.4mb 55f 55f
5:00 3ft 13s 4 7 mph 1026.2mb 55f 56f
4:00 3.5ft 12s 7
mph
1026.7mb 55f 56f
3:00 3ft 13s 7 9 mph 1027.2mb 55f 55f
2:00 3ft 11s 7
mph
1027.3mb 55f 55f
1:00 3ft 13s 4
mph
1027.4mb 55f 55f
12:00 3.5ft 11s 2 4 mph 1027.5mb 55f 55f
11:00 3ft 14s 4
mph
1027.5mb 55f 55f
10:00 3ft 11s 2
mph
1027.2mb 54f 56f
9:00 3ft 14s 2
mph
1027mb 54f 55f
8:00 3ft 12s 2
mph
1026.7mb 54f 54f
7:00 3ft 13s 2
mph
1026.2mb 53f 54f
6:00 3ft 18s 2 4 mph 1026.3mb 53f 54f
5:00 3ft 6s 4
mph
1026.2mb 53f 54f
4:00 3ft 18s 4
mph
1026.3mb 54f 54f
3:00 3.5ft 12s 7
mph
1026.3mb 54f 53f
2:00 3ft 7s 7
mph
1026.1mb 54f 53f
1:00 3ft 12s 7 9 mph 1025.8mb 53f 53f
12:00 3.5ft 7s 9
mph
1025.7mb 53f 54f
dim. 05/29 11:00 3ft 7s 9
mph
1025.7mb 53f 54f
10:00 3.5ft 7s 9 11 mph 1025.1mb 53f 54f
9:00 3.5ft 7s 11 13 mph 1024.6mb 53f 54f
8:00 3.5ft 7s 13
mph
1024.3mb 53f 55f
7:00 3.5ft 7s 11 13 mph 1024.3mb 53f 55f
6:00 3.5ft 7s 11 13 mph 1024.1mb 53f 55f
5:00 4ft 7s 13 16 mph 1024.1mb 53f 54f
4:00 4.5ft 7s 11 13 mph 1024.1mb 53f 54f
3:00 4.5ft 7s 11 13 mph 1023.9mb 53f 54f
2:00 4ft 7s 11 13 mph 1023.8mb 53f 54f
1:00 3.5ft 7s 13 16 mph 1023.3mb 53f 54f
12:00 3.5ft 7s 9 11 mph 1022.8mb 53f 53f
11:00 3.5ft 7s 7 9 mph 1022.3mb 53f 53f
10:00 3ft 6s 4 7 mph 1021.6mb 52f 53f
9:00 3ft 7s 4 7 mph 1021.2mb 52f 53f
8:00 3ft 7s 9 11 mph 1020.8mb 52f 53f
7:00 3ft 6s 11 13 mph 1020mb 52f 53f
6:00 3.5ft 7s 13
mph
1019.4mb 52f 53f
5:00 3.5ft 7s 11 13 mph 1018.7mb 52f 53f
4:00 3.5ft 6s 11 13 mph 1018.7mb 52f 53f
3:00 3.5ft 6s 11 13 mph 1018.3mb 52f 53f
2:00 3.5ft 6s 13 18 mph 1017.8mb 53f 53f
1:00 3.5ft 6s 13 18 mph 1017.5mb 53f 53f
12:00 3ft 6s 16 18 mph 1017.3mb 53f 53f
sam. 05/28 11:00 3.5ft 6s 13 16 mph 1017.1mb 53f 53f
10:00 3.5ft 6s 13 16 mph 1016.7mb 53f 53f
9:00 3ft 6s 13 18 mph 1016.2mb 54f 53f
8:00 3ft 5s 13 16 mph 1016mb 54f 54f
7:00 3ft 6s 13 16 mph 1015.6mb 54f 54f
6:00 3ft 14s 13 16 mph 1015.1mb 54f 54f
5:00 3ft 10s 13 16 mph 1015.1mb 54f 53f
4:00 2.5ft 6s 13 16 mph 1015.1mb 54f 53f
3:00 3ft 6s 16 18 mph 1014.8mb 54f 53f
2:00 3ft 5s 11 16 mph 1014.9mb 55f 53f
1:00 3ft 5s 9
mph
1014.8mb 55f 52f
12:00 3ft 6s 7
mph
1014.6mb 55f 51f
11:00 3ft 5s  -  2 mph 1014.2mb 55f 53f
10:00 3ft 5s 2
mph
1013.9mb 54f 53f
9:00 3.5ft 5s 2 4 mph 1014mb 54f 53f
8:00 3.5ft 5s 4 7 mph 1013.7mb 53f 51f
7:00 3ft 4s 9 11 mph 1013.4mb 53f 51f
6:00 3.5ft 4s 13 16 mph 1013.3mb 53f 51f
5:00 3ft 15s 13 16 mph 1013.8mb 53f 50f
4:00 3ft 6s 13 16 mph 1014mb 53f 51f
3:00 3.5ft 5s 13 16 mph 1014.4mb 53f 51f
2:00 3.5ft 7s 13 18 mph 1015mb 53f 50f
1:00 3.5ft 5s 11 13 mph 1016mb 53f 50f
12:00 4ft 6s 11 13 mph 1016.6mb 53f 50f
ven. 05/27 11:00 4ft 6s 9 13 mph 1017.2mb 53f 49f
10:00 4ft 6s 9 11 mph 1017.7mb 53f 49f
9:00 4ft 8s 7 9 mph 1017.8mb 53f 50f
8:00 4ft 5s 4 7 mph 1018.4mb 53f 50f
7:00 4ft 7s 7 9 mph 1018.7mb 53f 51f
6:00 3.5ft 7s 7 13 mph 1019.3mb 53f 50f
5:00 4ft 8s 4 7 mph 1019.7mb 53f 50f
4:00 3.5ft 8s 7 9 mph 1020.2mb 53f 50f
3:00 4ft 5s 4 7 mph 1020.3mb 53f 50f
2:00 4.5ft 6s 7 9 mph 1020.7mb 53f 50f
1:00 4.5ft 7s 11 13 mph 1020.8mb 53f 50f
12:00 4.5ft 8s 9 11 mph 1020.8mb 53f 50f
11:00 4.5ft 8s 13 18 mph 1020.8mb 53f 52f
10:00 4.5ft 8s 7 9 mph 1020.9mb 53f 52f
9:00 4.5ft 7s 7 9 mph 1020.8mb 53f 52f
8:00 4.5ft 7s 4 7 mph 1020.8mb 53f 51f